Starlink 1973

operational
NORAD ID: 47628 Int'l Des: 2021-012 Owner: SPXS Country: US Constellation: starlink
LEOCIRCULARSTARLINK_TYPE

About Starlink 1973

Description loading...

Live Position

Loading 3D Globe...

Upcoming Passes

Altitude History

Altitude vs Time

uPlot chart will show altitude changes over time

Two-Line Element Set

1 47628U 21012J 25346.62876556 .00002436 00000-0 18243-3 0 9994
2 47628 53.0566 102.4433 0001282 100.3256 259.7878 15.06391465266865
Epoch: Dec 12, 2025 • Age: 23 hours

Current Status

Altitude 550.0 km
Velocity 7.59 km/s
Sub-Earth Point 40.01°N, 52.37°W
Launch Date Feb 16, 2021
Age 4.8 years
Type internet

Technical Details

Classification Payload
Mass 260.00 kg
Dry Mass 248.00 kg
Total Mass 260.00 kg
Length 0.20 m
Diameter 2.80 m
Span 9.00 m
Shape Box + pan
Manufacturer SPXS
Bus Type Starlink
Phase Status In Orbit
Owner/State SPXS/US

Large Constellations

Loading constellations...